This is the latest recevied weather packets stored in our database for station/object K5NWZ. If no packets are shown the sender has not sent any weather packets the latest 10 day(s).
| Time | Temp. | Humidity | Pressure | Rain* | Wind** | Luminosity | Snow |
|---|---|---|---|---|---|---|---|
| 1788102073 | 20.56° C | 61% | 1027.5 hPa | 0 mm | - | 84 W/m² | - |
| 1788101772 | 21.11° C | 61% | 1027.4 hPa | 0 mm | - | 82 W/m² | - |
| 1788101467 | 20.56° C | 58% | 1027.4 hPa | 0 mm | - | 88 W/m² | - |
| 1788101163 | 20.56° C | 64% | 1027.5 hPa | 0 mm | - | 100 W/m² | - |
| 1788100859 | 20° C | 65% | 1027.4 hPa | 0 mm | - | 102 W/m² | - |
| 1788100554 | 20° C | 63% | 1027.6 hPa | 0 mm | - | 77 W/m² | - |
| 1788100252 | 20° C | 62% | 1027.4 hPa | 0 mm | - | 74 W/m² | - |
| 1788099948 | 20° C | 63% | 1027.3 hPa | 0 mm | - | 84 W/m² | - |
| 1788099643 | 20° C | 62% | 1027.4 hPa | 0 mm | - | 85 W/m² | - |
| 1788099338 | 20° C | 62% | 1027.5 hPa | 0 mm | - | 91 W/m² | - |
| 1788099033 | 20° C | 60% | 1027.5 hPa | 0 mm | - | 78 W/m² | - |
| 1788098733 | 19.44° C | 60% | 1027.3 hPa | 0 mm | - | 68 W/m² | - |
| 1788098429 | 19.44° C | 62% | 1027.3 hPa | 0 mm | - | 62 W/m² | - |
| 1788098123 | 19.44° C | 60% | 1027.3 hPa | 0 mm | - | 56 W/m² | - |
| 1788097819 | 19.44° C | 58% | 1027.4 hPa | 0 mm | - | 52 W/m² | - |
| 1788097514 | 19.44° C | 60% | 1027.2 hPa | 0 mm | - | 43 W/m² | - |
| 1788097204 | 19.44° C | 59% | 1027.2 hPa | 0 mm | - | 38 W/m² | - |
| 1788096900 | 20° C | 59% | 1027 hPa | 0 mm | - | 36 W/m² | - |
| 1788096594 | 19.44° C | 58% | 1027 hPa | 0 mm | - | 37 W/m² | - |
| 1788096290 | 18.89° C | 64% | 1027 hPa | 0 mm | - | 32 W/m² | - |
| 1788095990 | 18.89° C | 63% | 1026.8 hPa | 0 mm | - | 28 W/m² | - |
| 1788095683 | 19.44° C | 62% | 1026.7 hPa | 0 mm | - | 25 W/m² | - |
| 1788095378 | 19.44° C | 61% | 1026.8 hPa | 0 mm | - | 22 W/m² | - |
| 1788095074 | 19.44° C | 59% | 1026.9 hPa | 0 mm | - | 17 W/m² | - |
| 1788094773 | 19.44° C | 57% | 1026.9 hPa | 0 mm | - | 12 W/m² | - |
* Rain latest hour (hover to see other rain measurements)
** Current wind speed in m/s (hover to see current wind gust speed)